Regional Weather Roundup
Issued by NWS Little Rock, AR

Home | Current Version | Previous Version | Text Only | Print | Product List | Glossary On
Versions: 1 2 3 4 5 6 7 8 9 10 11 12 13 14 15 16 17 18 19 20 21 22 23 24 25 26 27 28 29 30 31 32 33 34 35 36 37 38 39 40 41 42 43 44 45 46 47 48 49 50
000
ASUS44 KLZK 070705
RWRLZK

WEATHER ROUNDUP FOR ARKANSAS
NATIONAL WEATHER SERVICE LITTLE ROCK AR
200 AM CDT TUE JUL 07 2015

NOTE: "FAIR" INDICATES FEW OR NO CLOUDS BELOW 12,000 FEET WITH NO
SIGNIFICANT WEATHER AND/OR OBSTRUCTIONS TO VISIBILITY.

ARZ001-003-010-029-070800-
NORTHWEST ARKANSAS

CITY           SKY/WX    TMP DP  RH WIND       PRES   REMARKS
FAYETTEVILLE   CLOUDY    77  70  79 S12       29.98F
FORT SMITH     CLOUDY    79  70  74 E3        29.95F
HARRISON       CLOUDY    76  70  82 S8        29.98F
BENTONVILLE    CLOUDY    79  68  69 S9        29.97F
ROGERS         CLOUDY    78  70  76 S15G22    29.97F
SILOAM SPGS    CLOUDY    77  66  69 S14       29.97F
HIGHFILL       CLOUDY    78  70  76 S12       29.96F
$$

ARZ004-005-016-070800-
NORTH CENTRAL ARKANSAS

CITY           SKY/WX    TMP DP  RH WIND       PRES   REMARKS
BATESVILLE     MOCLDY    79  73  83 CALM      29.98F
FLIPPIN        MOCLDY    77  70  78 S3        29.94S
MTN HOME       MOCLDY    76  72  87 S7        29.96F
$$

ARZ040-041-070800-
WEST CENTRAL ARKANSAS

CITY           SKY/WX    TMP DP  RH WIND       PRES   REMARKS
MENA           CLOUDY    81  72  74 S9G17     30.02S
MOUNT IDA      CLOUDY    81  71  71 MISG      29.99F HX  85
$$

ARZ009-017-025-026-028-070800-
NORTHEAST ARKANSAS

CITY           SKY/WX    TMP DP  RH WIND       PRES   REMARKS
JONESBORO      CLOUDY    77  75  93 SW12      29.98F
NEWPORT        CLOUDY    79  78  96 S12       29.99F
WALNUT RIDGE   CLOUDY    75  73  94 S12       29.97F
BLYTHEVILLE    CLOUDY    73  73 100 S6        30.00F
$$

ARZ022-023-033-042-044-070800-
CENTRAL ARKANSAS

CITY           SKY/WX    TMP DP  RH WIND       PRES   REMARKS
LITTLE ROCK    CLOUDY    79  73  82 S7        30.01F
N LITTLE ROCK    N/A     79  75  90 S7        30.01F
JACKSONVILLE   MOCLDY    79  74  87 S10       29.99F
SEARCY         PTCLDY    76  75  97 S7        30.00F
HOT SPRINGS    CLOUDY    80  72  76 SW8       30.02S
RUSSELLVILLE   CLOUDY    77  74  90 CALM      29.98F
CLINTON        FAIR      73  73 100 CALM      30.00F FOG
$$

ARZ036-070800-
EAST ARKANSAS

CITY           SKY/WX    TMP DP  RH WIND       PRES   REMARKS
WEST MEMPHIS   CLOUDY    78  76  93 S10       30.01F
$$

ARZ050-053-066-070-073-070800-
SOUTHWEST ARKANSAS

CITY           SKY/WX    TMP DP  RH WIND       PRES   REMARKS
ARKADELPHIA    FAIR      78  76  94 S5        30.02S
CAMDEN         MOCLDY    77  72  83 MISG      30.03F
TEXARKANA      MOCLDY    78  72  81 S10       30.03R
EL DORADO      CLOUDY    77  72  84 S8        30.05F
DE QUEEN       CLOUDY    79  72  79 S5        29.98F
$$

ARZ056-057-069-070800-
SOUTHEAST ARKANSAS

CITY           SKY/WX    TMP DP  RH WIND       PRES   REMARKS
PINE BLUFF     MOCLDY    77  75  93 S7        30.04S
STUTTGART      MOCLDY    81  73  78 MISG      30.01F HX  85
MONTICELLO     MOCLDY    78  75  90 S8        30.06S

$$





USA.gov is the U.S. government's official web portal to all federal, state and local government web resources and services.